Weather History for Easton, MD

Change the Weather History Date:

Thursday, September 19, 2013

  Actual Average Record
Temperature  
Mean Temperature 63 °F -  
Max Temperature 75 °F 80 °F 92 °F (1965)
Min Temperature 51 °F 59 °F 41 °F (1959)
Degree Days  
Heating Degree Days 2    
Growing Degree Days 13 (Base 50)    
Moisture  
Dew Point 54 °F    
Average Humidity 84    
Maximum Humidity 100    
Minimum Humidity 41    
Precipitation  
Precipitation 0.00 in - - ()
Sea Level Pressure  
Sea Level Pressure 30.20 in    
Wind  
Wind Speed 1 mph (WSW)    
Max Wind Speed 7 mph    
Max Gust Speed -    
Visibility 10 miles    
Events      
Averages and records for this station are not official NWS values.
T = Trace of Precipitation, MM = Missing Value Source: NWS Daily Summary

Daily Weather History Graph

Daily Weather History Graph

Search for Another Location

Airport:

Trip Planner

Search our weather history database for the weather conditions in past years. The results will help you decide how hot, cold, wet, or windy it might be!

Date:

Astronomy

Sep. 19, 2013 Rise Set
Actual Time 6:49 AM EDT 7:05 PM EDT
Civil Twilight 6:22 AM EDT 7:32 PM EDT
Nautical Twilight 5:51 AM EDT 8:03 PM EDT
Astronomical Twilight 5:19 AM EDT 8:35 PM EDT
Moon 7:03 PM EDT (9/19) 6:55 AM EDT (9/19)
Length of Visible Light 13h 09m
Length of Day
12h 16m
Full, 100% of the Moon is Illuminated
Sep 19
Full
Sep 26
Last Quarter
Oct 4
New
Oct 11
First Quarter
Oct 18
Full

Hourly Weather History & Observations

Time (EDT) Temp. Dew Point Humidity Pressure Visibility Wind Dir Wind Speed Gust Speed Precip Events Conditions
12:10 AM 56.7 °F 54.0 °F 91% 30.25 in 10.0 mi Calm Calm - N/A   Clear
12:30 AM 56.3 °F 54.1 °F 92% 30.25 in 10.0 mi Calm Calm - N/A   Clear
12:50 AM 55.0 °F 53.2 °F 94% 30.25 in 10.0 mi Calm Calm - N/A   Clear
1:10 AM 55.2 °F 55.2 °F 100% 30.24 in 10.0 mi Calm Calm - N/A   Clear
1:30 AM 54.5 °F 54.5 °F 100% 30.25 in 10.0 mi Calm Calm - N/A   Clear
1:50 AM 54.3 °F 54.3 °F 100% 30.24 in 10.0 mi Calm Calm - N/A   Clear
2:10 AM 55.6 °F 55.6 °F 100% 30.24 in 10.0 mi Calm Calm - N/A   Clear
2:30 AM 55.9 °F 55.9 °F 100% 30.24 in 10.0 mi Calm Calm - N/A   Clear
2:50 AM 55.4 °F 55.4 °F 100% 30.24 in 10.0 mi Calm Calm - N/A   Clear
3:10 AM 55.4 °F 55.4 °F 100% 30.23 in 10.0 mi Calm Calm - N/A   Clear
3:30 AM 55.4 °F 55.4 °F 100% 30.23 in 10.0 mi Calm Calm - N/A   Clear
3:51 AM 54.9 °F 54.9 °F 100% 30.22 in 10.0 mi Calm Calm - N/A   Clear
4:11 AM 54.5 °F 54.5 °F 100% 30.22 in 10.0 mi Calm Calm - N/A   Clear
4:31 AM 53.4 °F 53.4 °F 100% 30.22 in 10.0 mi Calm Calm - N/A   Clear
4:51 AM 53.8 °F 53.8 °F 100% 30.22 in 10.0 mi Calm Calm - N/A   Clear
5:11 AM 52.9 °F 52.9 °F 100% 30.22 in 10.0 mi Calm Calm - N/A   Clear
5:31 AM 52.7 °F 52.7 °F 100% 30.22 in 10.0 mi Calm Calm - N/A   Clear
5:51 AM 52.0 °F 52.0 °F 100% 30.22 in 10.0 mi Calm Calm - N/A   Clear
5:53 AM 51.8 °F 51.8 °F 100% 30.22 in 10.0 mi Calm Calm - N/A   Clear
6:11 AM 52.2 °F 52.2 °F 100% 30.23 in 10.0 mi Calm Calm - N/A   Clear
6:31 AM 52.5 °F 52.5 °F 100% 30.23 in 10.0 mi Calm Calm - N/A   Clear
6:46 AM 52.2 °F 52.2 °F 100% 30.23 in 10.0 mi Calm Calm - N/A   Clear
6:53 AM 53.6 °F 53.6 °F 100% 30.24 in 10.0 mi Calm Calm - N/A   Partly Cloudy
7:53 AM 55.4 °F 55.4 °F 100% 30.24 in 10.0 mi Calm Calm - N/A   Partly Cloudy
8:53 AM 64.4 °F 55.4 °F 73% 30.22 in 10.0 mi Calm Calm - N/A   Clear
9:53 AM 68.0 °F 55.4 °F 64% 30.23 in 10.0 mi WSW 5.8 mph - N/A   Partly Cloudy
10:53 AM 71.6 °F 55.4 °F 57% 30.24 in 10.0 mi SW 4.6 mph - N/A   Scattered Clouds
11:53 AM 69.8 °F 55.4 °F 60% 30.23 in 10.0 mi WSW 4.6 mph - N/A   Scattered Clouds
12:53 PM 73.4 °F 55.4 °F 53% 30.21 in 10.0 mi WSW 4.6 mph - N/A   Scattered Clouds
1:52 PM 75.2 °F 53.6 °F 47% 30.18 in 10.0 mi SW 6.9 mph - N/A   Scattered Clouds
2:55 PM 75.2 °F 51.8 °F 44% 30.17 in 10.0 mi West 4.6 mph - N/A   Scattered Clouds
3:50 PM 75.2 °F 53.6 °F 47% 30.15 in 10.0 mi SW 4.6 mph - N/A   Scattered Clouds
4:50 PM 75.2 °F 50.0 °F 41% 30.14 in 10.0 mi WSW 6.9 mph - N/A   Scattered Clouds
5:50 PM 75.2 °F 51.8 °F 44% 30.14 in 10.0 mi Calm Calm - N/A   Scattered Clouds
6:50 PM 71.6 °F 55.4 °F 57% 30.15 in 10.0 mi Calm Calm - N/A   Clear
7:50 PM 66.2 °F 55.4 °F 68% 30.16 in 10.0 mi Calm Calm - N/A   Clear
8:50 PM 64.4 °F 57.2 °F 77% 30.16 in 10.0 mi Calm Calm - N/A   Clear
9:53 PM 62.4 °F 55.9 °F 79% 30.15 in 10.0 mi Calm Calm - N/A   Clear
10:13 PM 62.2 °F 56.3 °F 81% 30.14 in 10.0 mi Calm Calm - N/A   Clear
10:33 PM 61.2 °F 56.7 °F 85% 30.14 in 10.0 mi Calm Calm - N/A   Clear
10:53 PM 60.8 °F 56.8 °F 87% 30.14 in 10.0 mi Calm Calm - N/A   Clear
11:13 PM 60.3 °F 56.7 °F 88% 30.14 in 10.0 mi Calm Calm - N/A   Clear
11:33 PM 59.4 °F 56.3 °F 90% 30.13 in 10.0 mi Calm Calm - N/A   Clear
11:53 PM 60.1 °F 56.7 °F 88% 30.13 in 10.0 mi Calm Calm - N/A   Clear